Location: Newark
(34.9471°N, 136.1778°E)
Time: 13:47:17
(UTC+00:00)

XW-2C - Pass Details

Date: 22 February 2020
Orbit: 509 x 527 km, 97.5° (Epoch: 01 April)

Event Time Altitude Azimuth Distance (km) Brightness Sun altitude
Rises 21:02:11 0° 7° (N) 2,635 ? -7.1°
Reaches altitude 10° 21:04:18 10° 3° (N) 1,747 ? -6.7°
Maximum altitude 21:08:00 59° 284° (WNW) 604 ? -6.0°
Drops below altitude 10° 21:11:42 10° 205° (SSW) 1,745 ? -5.2°
Sets 21:13:49 0° 201° (SSW) 2,631 ? -4.8°
